Change the Weather History Date:

Wednesday, October 3, 2012

  Actual Average (KGAD) Record (KGAD)
Temperature  
Mean Temperature 62 °F -  
Max Temperature 73 °F 75 °F 90 °F (1931)
Min Temperature 51 °F 52 °F 35 °F (2003)
Degree Days  
Heating Degree Days 3    
Growing Degree Days 12 (Base 50)    
Moisture  
Dew Point 55 °F    
Average Humidity 83    
Maximum Humidity 100    
Minimum Humidity 47    
Precipitation  
Precipitation 0.00 in - - ()
Sea Level Pressure  
Sea Level Pressure 30.11 in    
Wind  
Wind Speed 2 mph (SSE)    
Max Wind Speed 7 mph    
Max Gust Speed -    
Visibility 8 miles    
Events      
Averages and records for this station are not official NWS values.
T = Trace of Precipitation, MM = Missing Value Source: NWS Daily Summary

Daily Weather History Graph

Daily Weather History Graph

Search for Another Location

Airport or City:

Trip Planner

Search our weather history database for the weather conditions in past years. The results will help you decide how hot, cold, wet, or windy it might be!

Date:

Astronomy

Oct. 03, 2012 Rise Set
Actual Time 6:41 AM CDT 6:25 PM CDT
Civil Twilight 6:16 AM CDT 6:50 PM CDT
Nautical Twilight 5:47 AM CDT 7:19 PM CDT
Astronomical Twilight 5:18 AM CDT 7:48 PM CDT
Moon 8:28 PM CDT (10/3) 9:53 AM CDT (10/3)
Length of Visible Light 12h 34m
Length of Day
11h 44m
Waning Gibbous, 88% of the Moon is Illuminated
Oct 3
Waning Gibbous
Oct 8
Last Quarter
Oct 15
New
Oct 21
First Quarter
Oct 29
Full

Hourly Weather History & Observations

Time (CDT) Temp. Dew Point Humidity Pressure Visibility Wind Dir Wind Speed Gust Speed Precip Events Conditions
12:15 AM 53.6 °F 53.6 °F 100% 30.01 in 4.0 mi SE 4.6 mph - N/A   Mist
12:35 AM 53.6 °F 53.6 °F 100% 30.01 in 4.0 mi Calm Calm - N/A   Mist
12:55 AM 53.6 °F 53.6 °F 100% 30.01 in 2.5 mi SE 3.5 mph - N/A   Mist
1:15 AM 55.4 °F 55.4 °F 100% 30.02 in 4.0 mi SSE 4.6 mph - N/A   Mist
1:35 AM 53.6 °F 53.6 °F 100% 30.02 in 3.0 mi Calm Calm - N/A   Mist
1:55 AM 53.6 °F 53.6 °F 100% 30.02 in 4.0 mi SSE 3.5 mph - N/A   Mist
2:15 AM 53.6 °F 53.6 °F 100% 30.03 in 4.0 mi SSE 3.5 mph - N/A   Mist
2:35 AM 53.6 °F 53.6 °F 100% 30.03 in 5.0 mi Calm Calm - N/A   Mist
2:55 AM 53.6 °F 53.6 °F 100% 30.04 in 4.0 mi Calm Calm - N/A   Mist
3:15 AM 53.6 °F 53.6 °F 100% 30.03 in 10.0 mi Calm Calm - N/A   Unknown
3:35 AM 53.6 °F 53.6 °F 100% 30.03 in 10.0 mi Calm Calm - N/A   Unknown
3:55 AM 53.6 °F 53.6 °F 100% 30.04 in 4.0 mi Calm Calm - N/A   Mist
4:15 AM 53.6 °F 53.6 °F 100% 30.04 in 2.5 mi Calm Calm - N/A   Mist
4:35 AM 53.6 °F 53.6 °F 100% 30.05 in 1.8 mi Calm Calm - N/A   Mist
4:55 AM 53.6 °F 53.6 °F 100% 30.07 in 2.0 mi Calm Calm - N/A   Mist
5:15 AM 51.8 °F 51.8 °F 100% 30.07 in 2.5 mi Calm Calm - N/A   Mist
5:55 AM 51.8 °F 51.8 °F 100% 30.08 in 1.0 mi Calm Calm - N/A   Mist
6:15 AM 51.8 °F 51.8 °F 100% 30.09 in 3.0 mi Calm Calm - N/A   Mist
6:55 AM 51.8 °F 51.8 °F 100% 30.10 in 2.5 mi ENE 3.5 mph - N/A   Mist
7:15 AM 51.8 °F 51.8 °F 100% 30.11 in 2.5 mi East 3.5 mph - N/A   Mist
7:35 AM 51.8 °F 51.8 °F 100% 30.12 in 3.0 mi Calm Calm - N/A   Mist
7:55 AM 51.8 °F 51.8 °F 100% 30.12 in 3.0 mi Calm Calm - N/A   Mist
8:15 AM 53.6 °F 53.6 °F 100% 30.13 in 3.0 mi Calm Calm - N/A   Mist
8:35 AM 55.4 °F 55.4 °F 100% 30.14 in 5.0 mi Calm Calm - N/A   Mist
8:55 AM 59.0 °F 59.0 °F 100% 30.14 in 7.0 mi Calm Calm - N/A   Unknown
9:15 AM 60.8 °F 60.8 °F 100% 30.15 in 10.0 mi Calm Calm - N/A   Unknown
9:35 AM 60.8 °F 60.8 °F 100% 30.15 in 10.0 mi Calm Calm - N/A   Unknown
9:55 AM 62.6 °F 60.8 °F 94% 30.15 in 10.0 mi Calm Calm - N/A   Unknown
10:15 AM 64.4 °F 60.8 °F 88% 30.15 in 10.0 mi Calm Calm - N/A   Unknown
10:35 AM 66.2 °F 59.0 °F 78% 30.15 in 10.0 mi SE 3.5 mph - N/A   Unknown
10:55 AM 68.0 °F 55.4 °F 64% 30.15 in 10.0 mi SW 4.6 mph - N/A   Unknown
11:35 AM 69.8 °F 53.6 °F 56% 30.14 in 10.0 mi WSW 3.5 mph - N/A   Unknown
11:55 AM 69.8 °F 53.6 °F 56% 30.14 in 10.0 mi Calm Calm - N/A   Unknown
12:15 PM 71.6 °F 53.6 °F 53% 30.13 in 10.0 mi WSW 4.6 mph - N/A   Unknown
12:55 PM 71.6 °F 53.6 °F 53% 30.13 in 10.0 mi SSE 3.5 mph - N/A   Unknown
1:15 PM 73.4 °F 51.8 °F 47% 30.12 in 10.0 mi SSE 3.5 mph - N/A   Unknown
1:35 PM 71.6 °F 53.6 °F 53% 30.12 in 10.0 mi SSW 4.6 mph - N/A   Unknown
1:55 PM 71.6 °F 51.8 °F 50% 30.12 in 10.0 mi SSE 4.6 mph - N/A   Unknown
2:35 PM 71.6 °F 51.8 °F 50% 30.12 in 10.0 mi SSW 3.5 mph - N/A   Unknown
2:55 PM 73.4 °F 55.4 °F 53% 30.12 in 10.0 mi SSW 5.8 mph - N/A   Unknown
3:15 PM 71.6 °F 55.4 °F 57% 30.11 in 10.0 mi SSE 6.9 mph - N/A   Unknown
3:35 PM 69.8 °F 55.4 °F 60% 30.12 in 10.0 mi SE 3.5 mph - N/A   Unknown
3:55 PM 71.6 °F 55.4 °F 57% 30.12 in 10.0 mi SSE 3.5 mph - N/A   Unknown
4:15 PM 69.8 °F 55.4 °F 60% 30.12 in 10.0 mi South 6.9 mph - N/A   Unknown
4:35 PM 69.8 °F 57.2 °F 64% 30.12 in 10.0 mi SSE 3.5 mph - N/A   Unknown
4:55 PM 69.8 °F 57.2 °F 64% 30.13 in 10.0 mi SSE 3.5 mph - N/A   Unknown
5:15 PM 68.0 °F 57.2 °F 68% 30.13 in 10.0 mi SSE 5.8 mph - N/A   Unknown
5:55 PM 68.0 °F 55.4 °F 64% 30.14 in 10.0 mi SSE 4.6 mph - N/A   Unknown
6:15 PM 66.2 °F 57.2 °F 73% 30.14 in 10.0 mi SSE 4.6 mph - N/A   Unknown
6:35 PM 64.4 °F 57.2 °F 77% 30.15 in 10.0 mi SSE 3.5 mph - N/A   Unknown
6:55 PM 64.4 °F 57.2 °F 77% 30.15 in 10.0 mi SSE 3.5 mph - N/A   Unknown
7:15 PM 62.6 °F 57.2 °F 82% 30.15 in 10.0 mi SE 4.6 mph - N/A   Unknown
7:55 PM 62.6 °F 57.2 °F 82% 30.16 in 10.0 mi SE 4.6 mph - N/A   Unknown
8:35 PM 60.8 °F 55.4 °F 82% 30.17 in 10.0 mi SE 3.5 mph - N/A   Unknown
8:55 PM 60.8 °F 57.2 °F 88% 30.18 in 10.0 mi SE 3.5 mph - N/A   Unknown
9:55 PM 60.8 °F 57.2 °F 88% 30.19 in 10.0 mi SE 3.5 mph - N/A   Unknown
10:15 PM 60.8 °F 57.2 °F 88% 30.20 in 10.0 mi SE 3.5 mph - N/A   Unknown
10:55 PM 60.8 °F 55.4 °F 82% 30.20 in 10.0 mi SE 3.5 mph - N/A   Unknown
11:15 PM 60.8 °F 55.4 °F 82% 30.20 in 10.0 mi ESE 3.5 mph - N/A   Unknown
11:35 PM 59.0 °F 59.0 °F 100% 30.20 in 10.0 mi ESE 4.6 mph - N/A   Unknown
11:55 PM 59.0 °F 55.4 °F 88% 30.20 in 10.0 mi ESE 4.6 mph - N/A   Unknown